Skip Page Navigation
NASA JPL Caltech
NASA Logo - Jet Propulsion Laboratory + View the NASA Portal
+ Near-Earth Object (NEO) Program
Search JPL
JPL Home Earth Solar System Stars & Galaxies Technology
JPL Solar System Dynamics
BODIES ORBITS EPHEMERIDES TOOLS PHYSICAL DATA DISCOVERY FAQ SITE MAP
JPL Small-Body Database Browser
Search: [ help ]  
26810 (1985 CL2)
Classification: Main-belt Asteroid          SPK-ID: 2026810
Ephemeris | Orbit Diagram | Orbital Elements | Physical Parameters | Discovery Circumstances | Close-Approach Data ]

[ show orbit diagram ]
Orbital Elements at Epoch 2457400.5 (2016-Jan-13.0) TDB
Reference: JPL 17 (heliocentric ecliptic J2000)
 Element Value Uncertainty (1-sigma)   Units 
e .1260935337650952 6.0051e-08  
a 2.415916484245708 1.2293e-08 au
q 2.111285037465822 1.4871e-07 au
i 1.620912266309964 5.7571e-06 deg
node 163.2039408811317 0.0001692 deg
peri 18.2463714639154 0.00017063 deg
M 56.43673039457716 1.9825e-05 deg
tp 2457185.479113956196
(2015-Jun-11.97911396)
7.5452e-05 JED
period 1371.580501467308
3.76
1.0469e-05
2.866e-08
d
yr
n .2624709228622558 2.0033e-09 deg/d
Q 2.720547931025594 1.3843e-08 au
  Orbit Determination Parameters
   # obs. used (total)      1151  
   data-arc span      11073 days (30.32 yr)  
   first obs. used      1985-02-14  
   last obs. used      2015-06-10  
   planetary ephem.      DE431  
   SB-pert. ephem.      SB431-BIG16  
   condition code      0  
   fit RMS      .58095  
   data source      ORB  
   producer      Otto Matic  
   solution date      2015-Jul-06 12:39:32  

Additional Information
 Earth MOID = 1.11408 au 
 Jupiter MOID = 2.24 au 
 T_jup = 3.505 
[ show covariance matrix ]

Ephemeris | Orbit Diagram | Orbital Elements | Physical Parameters | Discovery Circumstances | Close-Approach Data ]

Physical Parameter Table
Parameter Symbol Value Units Sigma Reference Notes
absolute magnitude H 14.6 mag n/a MPO337485  

26810 (1985 CL2)          Discovered 1985-Feb-14 by Debehogne, H. at La Silla
Reference: 20010804/Numbers.arcLast Updated: 2004-04-19

[ show close-approach data ]
Alternate Designations
 1985 CL2 = 1998 SV123 
Ephemeris | Orbit Diagram | Orbital Elements | Physical Parameters | Discovery Circumstances | Close-Approach Data ]
ABOUT SSD CREDITS/AWARDS PRIVACY/COPYRIGHT GLOSSARY LINKS
FirstGov 2016-Feb-13 15:15 UT
(server date/time)  
NASA Home Page
Site Manager:   Ryan S. Park
Webmaster  Alan B. Chamberlin